Change the Weather History Date:

Tuesday, April 2, 2013

  Actual Average Record
Temperature  
Mean Temperature 51 °F -  
Max Temperature 54 °F 55 °F 70 °F (1987)
Min Temperature 46 °F 39 °F 28 °F (1963)
Degree Days  
Heating Degree Days 14    
Growing Degree Days 1 (Base 50)    
Moisture  
Dew Point 44 °F    
Average Humidity 80    
Maximum Humidity 93    
Minimum Humidity 69    
Precipitation  
Precipitation 0.00 in - - ()
Sea Level Pressure  
Sea Level Pressure 30.19 in    
Wind  
Wind Speed 8 mph (South)    
Max Wind Speed 14 mph    
Max Gust Speed 24 mph    
Visibility 10 miles    
Events      
Averages and records for this station are not official NWS values.
T = Trace of Precipitation, MM = Missing Value Source: NWS Daily Summary

Daily Weather History Graph

Daily Weather History Graph

Search for Another Location

Airport or City:

Trip Planner

Search our weather history database for the weather conditions in past years. The results will help you decide how hot, cold, wet, or windy it might be!

Date:

Astronomy

Apr. 02, 2013 Rise Set
Actual Time 6:44 AM PDT 7:41 PM PDT
Civil Twilight 6:13 AM PDT 8:12 PM PDT
Nautical Twilight 5:35 AM PDT 8:50 PM PDT
Astronomical Twilight 4:55 AM PDT 9:30 PM PDT
Moon 2:08 AM PDT (4/2) 11:24 AM PDT (4/2)
Length of Visible Light 13h 59m
Length of Day
12h 56m
Waning Gibbous, 55% of the Moon is Illuminated
Apr 2
Waning Gibbous
Apr 2
Last Quarter
Apr 10
New
Apr 18
First Quarter
Apr 25
Full

Hourly Weather History & Observations

Time (PDT) Temp. Dew Point Humidity Pressure Visibility Wind Dir Wind Speed Gust Speed Precip Events Conditions
12:30 AM 48.2 °F 42.8 °F 82% 30.16 in 10.0 mi SSW 13.8 mph 24.2 mph N/A   Mostly Cloudy
12:38 AM 48.2 °F 42.8 °F 82% 30.16 in 10.0 mi SSW 12.7 mph - N/A   Mostly Cloudy
12:53 AM 48.9 °F 44.1 °F 83% 30.17 in 10.0 mi South 9.2 mph - N/A   Overcast
1:53 AM 48.0 °F 43.0 °F 83% 30.19 in 10.0 mi SSW 11.5 mph - N/A   Overcast
2:53 AM 48.0 °F 43.0 °F 83% 30.19 in 10.0 mi SSW 10.4 mph - N/A   Overcast
3:37 AM 48.2 °F 42.8 °F 82% 30.19 in 10.0 mi SSW 10.4 mph - N/A   Overcast
3:53 AM 48.0 °F 42.1 °F 80% 30.19 in 10.0 mi SSW 11.5 mph - N/A   Overcast
4:53 AM 48.0 °F 42.1 °F 80% 30.19 in 10.0 mi South 10.4 mph - N/A   Overcast
5:53 AM 48.0 °F 43.0 °F 83% 30.19 in 10.0 mi SSE 9.2 mph - N/A   Overcast
6:53 AM 48.0 °F 44.1 °F 86% 30.19 in 10.0 mi South 6.9 mph - N/A   Overcast
7:53 AM 48.0 °F 44.1 °F 86% 30.19 in 10.0 mi SSE 9.2 mph - N/A   Overcast
8:53 AM 50.0 °F 42.1 °F 74% 30.19 in 10.0 mi South 10.4 mph - N/A   Overcast
9:00 AM 48.2 °F 42.8 °F 82% 30.19 in 10.0 mi South 10.4 mph - N/A   Overcast
9:41 AM 51.8 °F 42.8 °F 71% 30.19 in 10.0 mi South 11.5 mph - N/A   Overcast
9:53 AM 52.0 °F 42.1 °F 69% 30.19 in 10.0 mi South 11.5 mph - N/A   Overcast
10:53 AM 51.1 °F 42.1 °F 71% 30.20 in 10.0 mi SSE 10.4 mph - N/A   Overcast
11:53 AM 51.1 °F 42.1 °F 71% 30.21 in 10.0 mi South 9.2 mph - N/A   Overcast
12:53 PM 51.1 °F 43.0 °F 74% 30.21 in 10.0 mi SSE 5.8 mph - N/A   Overcast
1:53 PM 52.0 °F 43.0 °F 71% 30.21 in 10.0 mi SSE 6.9 mph - N/A   Overcast
2:53 PM 52.0 °F 43.0 °F 71% 30.21 in 10.0 mi Calm Calm - N/A   Overcast
3:53 PM 53.1 °F 43.0 °F 69% 30.19 in 10.0 mi SW 3.5 mph - N/A   Overcast
4:53 PM 54.0 °F 44.1 °F 69% 30.18 in 10.0 mi South 6.9 mph - N/A   Overcast
5:15 PM 53.6 °F 44.6 °F 72% 30.18 in 10.0 mi SSE 6.9 mph - N/A   Overcast
5:22 PM 53.6 °F 44.6 °F 72% 30.18 in 10.0 mi South 4.6 mph - N/A   Overcast
5:49 PM 50.0 °F 44.6 °F 82% 30.17 in 10.0 mi North 3.5 mph - N/A   Overcast
5:53 PM 50.0 °F 44.1 °F 80% 30.18 in 10.0 mi North 5.8 mph - N/A   Overcast
6:09 PM 50.0 °F 44.6 °F 82% 30.17 in 10.0 mi North 3.5 mph - N/A   Overcast
6:53 PM 50.0 °F 44.1 °F 80% 30.17 in 10.0 mi Calm Calm - N/A   Overcast
7:53 PM 50.0 °F 45.0 °F 83% 30.17 in 10.0 mi Calm Calm - N/A   Overcast
8:39 PM 48.2 °F 44.6 °F 87% 30.18 in 10.0 mi North 3.5 mph - N/A   Overcast
8:53 PM 48.9 °F 45.0 °F 86% 30.19 in 10.0 mi Calm Calm - N/A   Overcast
9:23 PM 48.2 °F 46.4 °F 93% 30.18 in 10.0 mi Calm Calm - 0.00 in   Overcast
9:34 PM 50.0 °F 46.4 °F 87% 30.18 in 10.0 mi Calm Calm - 0.00 in   Overcast
9:44 PM 50.0 °F 46.4 °F 87% 30.18 in 10.0 mi Calm Calm - 0.00 in   Overcast
9:53 PM 50.0 °F 46.0 °F 86% 30.19 in 10.0 mi West 4.6 mph - 0.00 in   Overcast
10:03 PM 48.2 °F 46.4 °F 93% 30.19 in 10.0 mi Calm Calm - N/A   Overcast
10:53 PM 48.0 °F 45.0 °F 89% 30.20 in 10.0 mi Calm Calm - N/A   Overcast
11:53 PM 46.9 °F 43.0 °F 86% 30.19 in 10.0 mi North 3.5 mph - N/A   Overcast